Location: Le Gr�zie
(43.6000°N, 13.5000°E)
Time: 16:24:44
(UTC+00:00)

Cosmos 1850 Rocket - Pass Details

Date: 09 April 2020
Orbit: 754 x 786 km, 74.0° (Epoch: 04 June)

Event Time Altitude Azimuth Distance (km) Brightness Sun altitude
Exits shadow 20:24:21 31° 222° (SW) 1,306 5.1 -26.6°
Maximum altitude 20:26:45 63° 293° (WNW) 843 4.3 -26.9°
Drops below altitude 10° 20:31:53 10° 14° (NNE) 2,288 6.8 -27.5°
Sets 20:34:18 0° 18° (NNE) 3,218 7.6 -27.8°
